FW5754 Southold NY US current weather conditions

sailwx.info

Wind from 331 at 13 knots gusting 18

Air temperature -5.0° C
Dewpoint -11.3° C

Last reported at 2020-Jan-21 06:00 UTC.
Time now 2020-Jan-21 06:21 UTC

Location: N 41°06' W 072°24'.
View on Google Maps.

See reports from other nearby stations

  
Tides and Currents Weather Stations Pressure Air Temp Water Temp Dewpoint Dewpoint Depression Visibility Wind Speed Wind Dir Waves Ship Positions
date/time (UTC)wind fromknots sea level pressurealtimeterstation pressurevisibilityair tempwater tempwave heightnotes
2020-Jan-21 06:00 331 13 gusting 18 -5.0
2020-Jan-21 05:50 348 12 gusting 17 -5.0
2020-Jan-21 05:46 334 13 gusting 17 -5.0
2020-Jan-21 05:40 330 11 gusting 15 -5.0
2020-Jan-21 05:35 343 12 gusting 18 -5.0
2020-Jan-21 05:32 337 14 gusting 18 -5.0
2020-Jan-21 05:25 330 12 gusting 16 -5.0
2020-Jan-21 05:20 334 10 gusting 17 -5.0
2020-Jan-21 05:15 338 13 gusting 17 -5.0
2020-Jan-21 05:10 333 14 gusting 20 -5.0
2020-Jan-21 05:05 355 14 gusting 20 -5.0
2020-Jan-21 05:01 333 15 gusting 19 -5.0
2020-Jan-21 04:50 330 16 gusting 21 -5.0
2020-Jan-21 04:46 329 15 gusting 19 -5.0
2020-Jan-21 04:40 329 15 gusting 18 -5.0
2020-Jan-21 04:31 336 13 gusting 18 -5.0
2020-Jan-21 04:25 336 13 gusting 17 -5.0
2020-Jan-21 04:20 327 13 gusting 19 -5.0
2020-Jan-21 04:10 336 13 gusting 17 -5.0
2020-Jan-21 04:05 344 12 gusting 16 -5.0
2020-Jan-21 03:50 344 13 gusting 17 -4.4
2020-Jan-21 03:40 327 13 gusting 17 -4.4
2020-Jan-21 03:31 331 14 gusting 22 -4.4
2020-Jan-21 03:25 349 13 gusting 22 -4.4
2020-Jan-21 03:20 339 13 gusting 19 -4.4
2020-Jan-21 03:10 344 13 gusting 18 -4.4
2020-Jan-21 03:05 346 14 gusting 18 -4.4
2020-Jan-21 03:00 325 14 gusting 19 -4.4
2020-Jan-21 02:50 333 14 gusting 19 -4.4
2020-Jan-21 02:40 317 16 gusting 21 -4.4
2020-Jan-21 02:30 327 15 gusting 23 -4.4
2020-Jan-21 02:20 346 17 gusting 22 -3.9
2020-Jan-21 02:15 328 16 gusting 23 -3.9
2020-Jan-21 02:10 339 19 gusting 24 -3.9
2020-Jan-21 02:05 327 19 gusting 24 -3.9
2020-Jan-21 01:50 331 18 gusting 25 -3.3
2020-Jan-21 01:40 326 17 gusting 22 -3.3
2020-Jan-21 01:30 333 14 gusting 21 -3.3
2020-Jan-21 01:25 333 16 gusting 19 -3.3
2020-Jan-21 01:20 329 16 gusting 20 -3.3
2020-Jan-21 01:05 336 16 gusting 21 -3.3
2020-Jan-21 00:50 319 15 gusting 20 -2.8
2020-Jan-21 00:45 339 17 gusting 20 -2.8
2020-Jan-21 00:35 323 13 gusting 19 -2.8
2020-Jan-21 00:30 348 15 gusting 19 -2.8
2020-Jan-21 00:25 355 13 gusting 19 -2.8
2020-Jan-21 00:15 350 15 gusting 20 -2.8
2020-Jan-21 00:10 335 16 gusting 20 -2.8
2020-Jan-21 00:05 329 17 gusting 20 -2.8
2020-Jan-21 00:00 332 14 gusting 21 -2.2
2020-Jan-20 23:50 335 15 gusting 21 -2.2
2020-Jan-20 23:40 316 16 gusting 20 -2.2
2020-Jan-20 23:35 337 14 gusting 17 -2.2
2020-Jan-20 23:30 334 14 gusting 17 -2.2
2020-Jan-20 23:25 333 12 gusting 16 -2.2
2020-Jan-20 23:20 355 11 gusting 19 -2.2
2020-Jan-20 23:15 005 13 gusting 20 -2.2
2020-Jan-20 23:10 344 16 gusting 21 -1.7
2020-Jan-20 23:02 334 16 gusting 19 -1.7
2020-Jan-20 22:51 335 12 gusting 19 -1.7
2020-Jan-20 22:47 340 13 gusting 18 -1.7
2020-Jan-20 22:41 348 12 gusting 20 -1.7
2020-Jan-20 22:36 344 13 gusting 20 -1.7
2020-Jan-20 22:32 338 16 gusting 21 -1.7
2020-Jan-20 22:26 344 15 gusting 21 -1.7
2020-Jan-20 22:20 330 17 gusting 21 -1.7
2020-Jan-20 22:16 336 15 gusting 19 -1.7
2020-Jan-20 22:10 329 17 gusting 20 -1.1
2020-Jan-20 22:05 327 16 gusting 20 -1.7
2020-Jan-20 22:01 355 13 gusting 22 -1.7
2020-Jan-20 21:50 005 13 gusting 16 -1.7
2020-Jan-20 21:48 017 12 gusting 20 -1.7
2020-Jan-20 21:40 344 16 gusting 20 -1.1
2020-Jan-20 21:35 347 13 gusting 19 -1.7
2020-Jan-20 21:31 336 13 gusting 19 -1.7
2020-Jan-20 21:25 344 13 gusting 19 -1.1
2020-Jan-20 21:20 351 13 gusting 19 -1.1
2020-Jan-20 21:17 346 16 gusting 19 -1.1
2020-Jan-20 21:10 005 13 gusting 18 -1.1
2020-Jan-20 21:05 005 15 gusting 18 -1.1
2020-Jan-20 21:01 329 13 gusting 19 -1.1
2020-Jan-20 20:50 333 14 gusting 20 -1.1
2020-Jan-20 20:46 336 17 gusting 20 -1.1
2020-Jan-20 20:40 340 14 gusting 19 -1.1
2020-Jan-20 20:35 319 14 gusting 20 -1.1
2020-Jan-20 20:31 339 15 gusting 20 -1.7
2020-Jan-20 20:25 347 15 gusting 19 -1.7
2020-Jan-20 20:20 347 13 gusting 22 -1.1
2020-Jan-20 20:16 339 16 gusting 22 -1.7
2020-Jan-20 20:11 344 14 gusting 19 -1.1
2020-Jan-20 20:05 351 13 gusting 19 -1.1
2020-Jan-20 20:01 334 14 gusting 19 -1.1
2020-Jan-20 19:50 337 15 gusting 19 -1.7
2020-Jan-20 19:46 360 14 gusting 18 -1.1
2020-Jan-20 19:40 347 13 gusting 19 -1.1
2020-Jan-20 19:35 333 15 gusting 20 -1.7
2020-Jan-20 19:31 344 14 gusting 20 -1.1
2020-Jan-20 19:20 338 16 gusting 24 -1.7
2020-Jan-20 19:15 331 16 gusting 24 -1.7
2020-Jan-20 19:10 339 17 gusting 21 -2.2
2020-Jan-20 19:05 331 15 gusting 19 -2.2
2020-Jan-20 19:01 347 13 gusting 19 -1.7
2020-Jan-20 18:50 333 13 gusting 19 -1.7
2020-Jan-20 18:45 344 15 gusting 21 -2.2
2020-Jan-20 18:40 335 15 gusting 21 -2.2
2020-Jan-20 18:35 360 15 gusting 22 -2.2
2020-Jan-20 18:31 338 19 gusting 22 -2.2
2020-Jan-20 18:25 332 14 gusting 22 -2.2
2020-Jan-20 18:20 348 15 gusting 22 -2.8
2020-Jan-20 18:17 346 17 gusting 22 -2.8
2020-Jan-20 18:10 351 17 gusting 22 -2.8
2020-Jan-20 18:05 329 18 gusting 23 -2.8
2020-Jan-20 18:01 005 16 gusting 23 -2.8
2020-Jan-20 17:50 345 17 gusting 25 -2.8
2020-Jan-20 17:46 343 17 gusting 25 -2.8
2020-Jan-20 17:40 360 18 gusting 24 -2.8
2020-Jan-20 17:35 348 17 gusting 21 -2.8
2020-Jan-20 17:31 335 18 gusting 21 -2.8
2020-Jan-20 17:20 342 15 gusting 23 -3.3
2020-Jan-20 17:16 346 15 gusting 23 -3.3
2020-Jan-20 17:10 335 14 gusting 21 -3.3
2020-Jan-20 17:05 327 16 gusting 25 -3.3
2020-Jan-20 17:01 355 19 gusting 25 -3.3
2020-Jan-20 16:50 335 16 gusting 23 -3.3
2020-Jan-20 16:46 342 19 gusting 22 -3.3
2020-Jan-20 16:40 346 16 gusting 22 -3.9
2020-Jan-20 16:35 340 15 gusting 22 -3.9
2020-Jan-20 16:32 332 18 gusting 21 -3.9
2020-Jan-20 16:25 331 17 gusting 25 -3.9
2020-Jan-20 16:20 346 17 gusting 25 -3.9
2020-Jan-20 16:17 347 14 gusting 21 -3.9
2020-Jan-20 16:10 335 18 gusting 22 -4.4
2020-Jan-20 16:05 355 14 gusting 22 -4.4
2020-Jan-20 16:01 345 15 gusting 19 -4.4
2020-Jan-20 15:50 332 16 gusting 21 -4.4
2020-Jan-20 15:46 347 13 gusting 22 -4.4
2020-Jan-20 15:40 011 15 gusting 22 -4.4
2020-Jan-20 15:35 346 16 gusting 22 -4.4
2020-Jan-20 15:31 355 16 gusting 22 -4.4
2020-Jan-20 15:25 346 14 gusting 22 -5.0
2020-Jan-20 15:20 341 15 gusting 22 -5.0
2020-Jan-20 15:18 344 18 gusting 23 -5.0
2020-Jan-20 15:10 338 18 gusting 23 -5.0
2020-Jan-20 15:05 347 16 gusting 25 -5.0
2020-Jan-20 15:01 333 19 gusting 25 -5.0
2020-Jan-20 14:50 349 17 gusting 23 -5.0
2020-Jan-20 14:46 350 16 gusting 24 -5.0
2020-Jan-20 14:40 343 19 gusting 24 -5.0
2020-Jan-20 14:35 360 16 gusting 23 -5.0
2020-Jan-20 14:31 336 18 gusting 26 -5.0
2020-Jan-20 14:25 341 19 gusting 26 -5.6
2020-Jan-20 14:21 023 18 gusting 26 -5.6
2020-Jan-20 14:16 013 18 gusting 26 -5.6
2020-Jan-20 14:10 329 16 gusting 24 -5.6
2020-Jan-20 14:05 337 15 gusting 25 -5.6
2020-Jan-20 14:00 339 20 gusting 25 -5.6
2020-Jan-20 13:50 011 18 gusting 25 -5.6
2020-Jan-20 13:45 005 18 gusting 25 -5.6
2020-Jan-20 13:40 329 19 gusting 24 -5.6
2020-Jan-20 13:35 339 18 gusting 24 -5.6
2020-Jan-20 13:31 332 19 gusting 23 -6.1
2020-Jan-20 13:25 332 17 gusting 24 -6.1
2020-Jan-20 13:20 331 19 gusting 24 -5.6
2020-Jan-20 13:15 332 19 gusting 23 -5.6
2020-Jan-20 13:10 360 18 gusting 25 -5.6
2020-Jan-20 13:05 333 18 gusting 24 -5.6
2020-Jan-20 13:00 338 17 gusting 23 -6.1
2020-Jan-20 12:50 325 19 gusting 24 -5.6
2020-Jan-20 12:45 339 18 gusting 24 -5.6
2020-Jan-20 12:40 355 16 gusting 24 -5.6
2020-Jan-20 12:35 355 17 gusting 24 -5.6
2020-Jan-20 12:25 346 14 gusting 23 -5.6
2020-Jan-20 12:20 330 19 gusting 23 -5.6
2020-Jan-20 12:10 355 20 gusting 25 -5.6
2020-Jan-20 12:05 332 18 gusting 26 -5.6
2020-Jan-20 12:00 325 19 gusting 26 -5.6
2020-Jan-20 11:50 345 19 gusting 27 -5.6
2020-Jan-20 11:40 328 20 gusting 26 -5.6
2020-Jan-20 11:35 336 19 gusting 28 -5.6
2020-Jan-20 11:30 360 21 gusting 28 -5.6
2020-Jan-20 11:25 343 21 gusting 30 -5.6
2020-Jan-20 11:20 330 22 gusting 30 -5.6
2020-Jan-20 11:15 341 20 gusting 27 -5.6
2020-Jan-20 11:10 344 21 gusting 27 -5.6
2020-Jan-20 11:05 332 19 gusting 26 -5.6
2020-Jan-20 11:00 326 19 gusting 26 -5.6
2020-Jan-20 10:51 339 19 gusting 27 -5.6
2020-Jan-20 10:47 331 19 gusting 27 -5.6
2020-Jan-20 10:40 336 16 gusting 24 -5.6
2020-Jan-20 10:36 327 19 gusting 25 -5.0
2020-Jan-20 10:32 338 20 gusting 27 -5.6
2020-Jan-20 10:20 360 19 gusting 26 -5.6
2020-Jan-20 10:17 342 19 gusting 26 -5.6
2020-Jan-20 10:10 340 18 gusting 26 -5.6
2020-Jan-20 10:05 340 18 gusting 26 -5.6
2020-Jan-20 10:01 336 19 gusting 26 -5.6
2020-Jan-20 09:55 350 18 gusting 27 -5.6
2020-Jan-20 09:50 338 19 gusting 29 -5.6
2020-Jan-20 09:46 351 22 gusting 29 -5.6
2020-Jan-20 09:40 329 20 gusting 27 -5.6
2020-Jan-20 09:35 339 19 gusting 29 -5.6
2020-Jan-20 09:32 333 20 gusting 29 -5.0
2020-Jan-20 09:20 343 18 gusting 28 -5.0
2020-Jan-20 09:17 334 20 gusting 28 -5.0
2020-Jan-20 09:11 334 19 gusting 27 -5.0
2020-Jan-20 09:05 350 20 gusting 30 -5.0
2020-Jan-20 09:01 344 24 gusting 30 -5.0
2020-Jan-20 08:55 336 20 gusting 29 -5.0
2020-Jan-20 08:50 327 23 gusting 29 -5.0
2020-Jan-20 08:47 333 20 gusting 29 -5.0
2020-Jan-20 08:40 355 22 gusting 30 -5.0
2020-Jan-20 08:35 337 21 gusting 30 -5.0
2020-Jan-20 08:32 346 24 gusting 29 -5.0
2020-Jan-20 08:20 344 23 gusting 30 -5.0
2020-Jan-20 08:16 340 22 gusting 30 -5.0
2020-Jan-20 08:10 336 24 gusting 29 -4.4
2020-Jan-20 08:05 337 22 gusting 27 -4.4
2020-Jan-20 08:01 339 21 gusting 27 -4.4
2020-Jan-20 07:55 340 24 gusting 28 -4.4
2020-Jan-20 07:50 333 24 gusting 29 -4.4
2020-Jan-20 07:47 340 23 gusting 29 -4.4
2020-Jan-20 07:40 329 22 gusting 28 -3.9
2020-Jan-20 07:35 332 23 gusting 27 -3.9
2020-Jan-20 07:31 333 22 gusting 27 -3.9
2020-Jan-20 07:20 348 20 gusting 26 -3.9
2020-Jan-20 07:16 329 21 gusting 28 -3.9
2020-Jan-20 07:10 345 22 gusting 29 -3.3
2020-Jan-20 07:05 348 20 gusting 26 -3.3
2020-Jan-20 07:01 360 19 gusting 28 -3.3
2020-Jan-20 06:55 349 20 gusting 28 -3.3
2020-Jan-20 06:50 340 21 gusting 26 -3.3
2020-Jan-20 06:46 338 21 gusting 27 -3.3
2020-Jan-20 06:40 338 21 gusting 29 -3.3
2020-Jan-20 06:35 009 22 gusting 30 -2.8
2020-Jan-20 06:31 342 25 gusting 31 -2.8
2020-Jan-20 06:20 325 24 gusting 27 -2.2
2020-Jan-20 06:16 330 23 gusting 32 -2.2
2020-Jan-20 06:10 322 26 gusting 32 -2.2
2020-Jan-20 06:05 331 23 gusting 31 -2.2
2020-Jan-20 06:00 327 24 gusting 30 -2.2
2020-Jan-20 05:55 329 25 gusting 32 -2.2
2020-Jan-20 05:50 323 25 gusting 32 -2.2
2020-Jan-20 05:45 333 25 gusting 32 -2.2
2020-Jan-20 05:40 355 25 gusting 32 -2.2
2020-Jan-20 05:35 341 25 gusting 29 -1.7
2020-Jan-20 05:20 348 23 gusting 30 -1.7
2020-Jan-20 05:15 336 24 gusting 29 -1.1
2020-Jan-20 05:10 344 21 gusting 26 -1.1
2020-Jan-20 05:05 346 21 gusting 28 -1.1
2020-Jan-20 04:55 349 22 gusting 30 -0.6
2020-Jan-20 04:50 332 23 gusting 30 -0.6
2020-Jan-20 04:45 339 22 gusting 29 -0.6
2020-Jan-20 04:40 340 25 gusting 31 -0.6
2020-Jan-20 04:35 336 26 gusting 31 -0.6
2020-Jan-20 04:20 342 20 gusting 30 0.6
2020-Jan-20 04:15 338 24 gusting 30 0.6
2020-Jan-20 04:06 329 21 gusting 27 1.1
2020-Jan-20 04:01 343 23 gusting 27 1.1
2020-Jan-20 03:55 323 19 gusting 26 1.1
2020-Jan-20 03:51 324 19 gusting 24 1.1
2020-Jan-20 03:48 332 18 gusting 24 1.1
2020-Jan-20 03:41 329 19 gusting 26 1.1
2020-Jan-20 03:35 320 19 gusting 26 1.7
2020-Jan-20 03:32 321 19 gusting 22 1.7
2020-Jan-20 03:20 314 18 gusting 25 1.7
2020-Jan-20 03:16 331 20 gusting 25 1.7
2020-Jan-20 03:10 307 20 gusting 29 1.7
2020-Jan-20 03:06 315 21 gusting 29 1.7
2020-Jan-20 03:02 313 22 gusting 28 2.2
2020-Jan-20 02:56 315 22 gusting 28 2.2
2020-Jan-20 02:50 313 22 gusting 30 2.2
2020-Jan-20 02:46 309 24 gusting 30 2.2
2020-Jan-20 02:40 319 21 gusting 28 2.2
2020-Jan-20 02:35 302 24 gusting 30 2.2
2020-Jan-20 02:31 297 24 gusting 30 2.2
2020-Jan-20 02:20 304 20 gusting 30 2.2
2020-Jan-20 02:17 304 22 gusting 30 2.2
2020-Jan-20 02:10 319 24 gusting 28 2.2
2020-Jan-20 02:05 315 22 gusting 28 2.2
2020-Jan-20 02:01 306 23 gusting 28 2.2
2020-Jan-20 01:55 313 21 gusting 26 2.2
2020-Jan-20 01:50 304 20 gusting 28 2.2
2020-Jan-20 01:46 310 22 gusting 28 2.2
2020-Jan-20 01:40 313 22 gusting 27 2.2
2020-Jan-20 01:35 305 21 gusting 26 2.8
2020-Jan-20 01:30 298 19 gusting 25 2.8
2020-Jan-20 01:20 311 22 gusting 26 2.8
2020-Jan-20 01:15 315 20 gusting 26 2.8
2020-Jan-20 01:10 312 21 gusting 27 2.8
2020-Jan-20 01:05 312 22 gusting 26 2.8
2020-Jan-20 01:01 315 22 gusting 27 2.8
2020-Jan-20 00:55 321 22 gusting 27 2.8
2020-Jan-20 00:50 312 22 gusting 27 2.8
2020-Jan-20 00:46 309 22 gusting 26 2.8
2020-Jan-20 00:40 304 21 gusting 26 3.3
2020-Jan-20 00:35 289 22 gusting 26 3.3
2020-Jan-20 00:31 309 21 gusting 25 3.3
2020-Jan-20 00:20 307 17 gusting 24 3.3
2020-Jan-20 00:15 312 19 gusting 26 3.3
2020-Jan-20 00:10 309 20 gusting 27 3.3
2020-Jan-20 00:05 313 22 gusting 27 3.3
2020-Jan-19 23:55 306 23 gusting 29 3.3
2020-Jan-19 23:50 310 22 gusting 26 3.9
2020-Jan-19 23:40 324 17 gusting 21 3.9
2020-Jan-19 23:30 319 18 gusting 24 3.9
2020-Jan-19 23:20 322 19 gusting 25 3.9
2020-Jan-19 23:10 331 18 gusting 22 3.9
2020-Jan-19 23:05 320 19 gusting 23 4.4
2020-Jan-19 23:00 316 18 gusting 24 4.4
2020-Jan-19 22:55 329 19 gusting 24 4.4
2020-Jan-19 22:45 318 18 gusting 23 4.4
2020-Jan-19 22:40 311 17 gusting 23 4.4
2020-Jan-19 22:35 329 19 gusting 23 4.4
2020-Jan-19 22:30 319 19 gusting 23 4.4
2020-Jan-19 22:20 309 19 gusting 23 4.4
2020-Jan-19 22:15 313 19 gusting 23 4.4
2020-Jan-19 22:10 313 19 gusting 23 4.4
2020-Jan-19 22:05 315 19 gusting 24 4.4
2020-Jan-19 22:01 317 19 gusting 24 4.4
2020-Jan-19 21:55 307 19 gusting 23 4.4
2020-Jan-19 21:50 322 18 gusting 25 5.0
2020-Jan-19 21:45 315 15 gusting 25 5.0
2020-Jan-19 21:40 307 19 gusting 22 5.0
2020-Jan-19 21:35 310 15 gusting 19 5.0
2020-Jan-19 21:31 305 14 gusting 19 5.0
2020-Jan-19 21:20 304 19 gusting 22 5.0
2020-Jan-19 21:15 321 18 gusting 22 5.0
2020-Jan-19 21:10 309 18 gusting 23 5.0
2020-Jan-19 21:05 308 19 gusting 23 5.0
2020-Jan-19 21:00 289 18 gusting 22 5.0
2020-Jan-19 20:55 310 17 gusting 22 5.0
2020-Jan-19 20:50 323 17 gusting 20 5.0
2020-Jan-19 20:40 309 13 gusting 15 5.0
2020-Jan-19 20:35 306 10 gusting 12 5.0
2020-Jan-19 20:20 302 9 gusting 12 5.0
2020-Jan-19 20:15 294 9 gusting 13 5.0
2020-Jan-19 20:10 298 11 gusting 13 5.0
2020-Jan-19 20:05 298 11 gusting 13 5.0
2020-Jan-19 20:00 305 12 gusting 14 5.0
2020-Jan-19 19:55 304 11 gusting 14 5.0
2020-Jan-19 19:46 302 11 gusting 15 5.0
2020-Jan-19 19:45 302 11 gusting 15 5.0
2020-Jan-19 19:36 285 13 gusting 17 5.6
2020-Jan-19 19:32 306 12 gusting 17 5.6
2020-Jan-19 19:20 300 13 gusting 17 5.6
2020-Jan-19 19:10 309 16 gusting 20 5.6
2020-Jan-19 19:05 305 15 gusting 21 5.6
2020-Jan-19 18:55 305 15 gusting 19 5.6
2020-Jan-19 18:50 309 13 gusting 17 5.6
2020-Jan-19 18:40 292 12 gusting 16 5.6
2020-Jan-19 18:35 292 13 gusting 19 5.6
2020-Jan-19 18:20 278 14 gusting 19 5.6
2020-Jan-19 18:15 286 13 gusting 18 5.6
2020-Jan-19 18:10 284 13 gusting 18 5.6
2020-Jan-19 18:05 280 12 gusting 18 5.6
2020-Jan-19 18:00 280 12 gusting 18 5.6
2020-Jan-19 17:55 294 13 gusting 18 5.6
2020-Jan-19 17:50 292 13 gusting 17 5.6
2020-Jan-19 17:40 290 13 gusting 19 5.6
2020-Jan-19 17:35 286 13 gusting 17 5.6
2020-Jan-19 17:30 278 12 gusting 15 5.6
2020-Jan-19 17:20 243 11 gusting 17 5.6
2020-Jan-19 17:10 279 14 gusting 18 5.0
2020-Jan-19 17:05 297 13 gusting 17 5.6
2020-Jan-19 16:55 286 9 gusting 14 5.6
2020-Jan-19 16:50 288 9 gusting 13 5.0
2020-Jan-19 16:45 270 9 gusting 13 5.0
2020-Jan-19 16:40 306 9 gusting 14 5.0
2020-Jan-19 16:31 284 12 gusting 16 5.0
2020-Jan-19 16:20 290 14 gusting 18 5.0
2020-Jan-19 16:15 284 14 gusting 19 5.0
2020-Jan-19 16:05 290 14 gusting 19 5.0
2020-Jan-19 15:55 293 17 gusting 22 5.0
2020-Jan-19 15:45 284 10 gusting 14 4.4
2020-Jan-19 15:36 286 11 gusting 14 4.4
2020-Jan-19 15:32 261 9 gusting 13 4.4
2020-Jan-19 15:20 284 8 gusting 13 4.4
2020-Jan-19 15:16 278 10 gusting 15 4.4
2020-Jan-19 15:10 271 9 gusting 16 4.4
2020-Jan-19 15:05 298 12 gusting 17 4.4
2020-Jan-19 15:01 304 13 gusting 19 4.4
2020-Jan-19 14:55 304 14 gusting 19 4.4
2020-Jan-19 14:50 300 14 gusting 19 3.9
2020-Jan-19 14:46 303 15 gusting 19 3.9
2020-Jan-19 14:40 293 13 gusting 18 3.9
2020-Jan-19 14:35 283 13 gusting 18 3.9
2020-Jan-19 14:31 306 13 gusting 19 3.9
2020-Jan-19 14:20 296 15 gusting 19 3.9
2020-Jan-19 14:15 300 17 gusting 20 3.9
2020-Jan-19 14:10 304 16 gusting 21 3.9
2020-Jan-19 14:05 300 18 gusting 21 3.9
2020-Jan-19 14:02 313 15 gusting 22 3.9
2020-Jan-19 13:55 305 18 gusting 22 3.9
2020-Jan-19 13:50 309 14 gusting 19 3.9
2020-Jan-19 13:46 304 13 gusting 20 3.9
2020-Jan-19 13:40 294 14 gusting 20 3.9
2020-Jan-19 13:35 292 16 gusting 20 3.9
2020-Jan-19 13:30 306 17 gusting 22 3.9
2020-Jan-19 13:20 299 15 gusting 20 3.9
2020-Jan-19 13:16 296 16 gusting 20 3.9
2020-Jan-19 13:10 284 14 gusting 19 3.9
2020-Jan-19 13:05 288 13 gusting 19 3.9
2020-Jan-19 13:00 307 15 gusting 19 3.9
2020-Jan-19 12:55 274 13 gusting 18 3.9
2020-Jan-19 12:50 284 13 gusting 17 3.9
2020-Jan-19 12:45 289 13 gusting 17 3.9
2020-Jan-19 12:40 295 13 gusting 18 3.9
2020-Jan-19 12:35 285 14 gusting 19 3.9
2020-Jan-19 12:31 289 15 gusting 20 3.9
2020-Jan-19 12:20 278 13 gusting 19 3.9
2020-Jan-19 12:10 281 13 gusting 16 3.9
2020-Jan-19 12:05 295 13 gusting 17 3.9
2020-Jan-19 11:55 277 12 gusting 18 3.9
2020-Jan-19 11:45 290 11 gusting 16 3.9
2020-Jan-19 11:40 278 12 gusting 16 3.9
2020-Jan-19 11:35 290 9 gusting 15 3.9
2020-Jan-19 11:20 279 11 gusting 17 3.9
2020-Jan-19 11:10 282 11 gusting 14 3.9
2020-Jan-19 11:00 248 6 gusting 12 3.3
2020-Jan-19 10:50 271 3 gusting 10 3.3
2020-Jan-19 10:46 292 4 gusting 11 3.3
2020-Jan-19 10:40 264 5 gusting 11 3.3
2020-Jan-19 10:35 244 5 gusting 11 3.3
2020-Jan-19 10:20 262 6 gusting 13 3.3
2020-Jan-19 10:10 288 6 gusting 11 3.3
2020-Jan-19 10:05 280 6 gusting 13 3.3
2020-Jan-19 09:55 211 5 gusting 11 3.3
2020-Jan-19 09:50 279 5 gusting 12 3.3
2020-Jan-19 09:45 254 6 gusting 14 3.3
2020-Jan-19 09:40 217 6 gusting 14 3.3
2020-Jan-19 09:35 257 7 gusting 13 3.3
2020-Jan-19 09:30 255 6 gusting 13 3.3
2020-Jan-19 09:20 199 6 gusting 13 3.3
2020-Jan-19 09:10 236 6 gusting 13 3.3
2020-Jan-19 09:00 260 3 gusting 10 3.3
2020-Jan-19 08:55 257 4 gusting 9 3.3
2020-Jan-19 08:50 240 5 gusting 12 3.3
2020-Jan-19 08:45 285 5 gusting 12 3.3
2020-Jan-19 08:40 273 4 gusting 12 3.3
2020-Jan-19 08:35 311 4 gusting 13 3.3
2020-Jan-19 08:20 235 6 gusting 13 3.3
2020-Jan-19 08:15 240 4 gusting 13 3.3
2020-Jan-19 08:10 287 6 gusting 13 3.3
2020-Jan-19 08:05 202 5 gusting 12 3.3
2020-Jan-19 08:00 271 6 gusting 12 3.3
2020-Jan-19 07:55 240 5 gusting 16 3.3
2020-Jan-19 07:48 246 6 gusting 15 3.3
2020-Jan-19 07:41 281 8 gusting 16 3.3
2020-Jan-19 07:35 288 10 gusting 16 3.3
2020-Jan-19 07:32 281 10 gusting 16 3.9
2020-Jan-19 07:25 259 11 gusting 17 3.9
2020-Jan-19 07:17 281 9 gusting 13 3.3
2020-Jan-19 07:11 263 7 gusting 14 3.3
2020-Jan-19 07:06 222 5 gusting 14 3.3
2020-Jan-19 07:02 292 6 gusting 13 3.3
2020-Jan-19 06:56 224 6 gusting 9 3.3
2020-Jan-19 06:50 239 3 gusting 8 3.3
2020-Jan-19 06:47 257 3 gusting 9 3.3
2020-Jan-19 06:40 211 3 gusting 8 3.3
2020-Jan-19 06:35 250 4 gusting 7 3.3
2020-Jan-19 06:25 260 4 gusting 10 3.3
2020-Jan-19 06:17 242 3 gusting 9 3.3
2020-Jan-19 06:10 225 3 gusting 8 3.3
2020-Jan-19 06:05 250 3 gusting 8 3.3
2020-Jan-19 06:02 259 3 gusting 8 3.3